,,,PA_Meas_PMT16A,,PR_Meas_QMR101_102,,RH_Meas_QMH101,,SR_Meas_QMS101,,TA_Meas_QMH101,,GenWind,,GenWind,
date,time,status,PA,status,PR,status,RH,status,SR,status,TA,status,DirAvg,status,SpdAvg,
2008-03-05, 00:00:05,VALID,1004.1,VALID,0,VALID,85.0773,VALID,0,VALID,24.5814,VALID,67,VALID,0.391406,
2008-03-05, 00:01:04,VALID,1004.1,VALID,0,VALID,85.5045,VALID,0,VALID,24.523,VALID,50,VALID,0.364062,
2008-03-05, 00:02:04,VALID,1004.09,VALID,0,VALID,85.7105,VALID,0,VALID,24.5054,VALID,46,VALID,0.43125,
2008-03-05, 00:03:04,VALID,1004.11,VALID,0,VALID,86.1987,VALID,0,VALID,24.3867,VALID,41,VALID,0.533203,
2008-03-05, 00:04:04,VALID,1004.07,VALID,0,VALID,85.6723,VALID,0,VALID,24.3283,VALID,45,VALID,0.485547,
2008-03-05, 00:05:04,VALID,1004.07,VALID,0,VALID,85.8173,VALID,0,VALID,24.3478,VALID,31,VALID,0.815234,
2008-03-05, 00:06:04,VALID,1004.08,VALID,0,VALID,85.7791,VALID,0,VALID,24.4062,VALID,34,VALID,0.616016,
2008-03-05, 00:07:04,VALID,1004.09,VALID,0,VALID,85.4282,VALID,0,VALID,24.4451,VALID,45,VALID,0.819922,
2008-03-05, 00:08:04,VALID,1004.08,VALID,0,VALID,84.9934,VALID,0,VALID,24.523,VALID,27,VALID,0.523828,
2008-03-05, 00:09:04,VALID,1004.06,VALID,0,VALID,84.6577,VALID,0,VALID,24.6009,VALID,18,VALID,0.809766,
2008-03-05, 00:10:04,VALID,1004.04,VALID,0,VALID,83.788,VALID,0,VALID,24.6788,VALID,32,VALID,0.921875,
2008-03-05, 00:11:04,VALID,1004.05,VALID,0,VALID,83.8872,VALID,0,VALID,24.7956,VALID,39,VALID,0.672656,
2008-03-05, 00:12:04,VALID,1004.04,VALID,0,VALID,83.4981,VALID,0,VALID,24.7548,VALID,17,VALID,0.744141,
2008-03-05, 00:13:04,VALID,1004.04,VALID,0,VALID,83.5973,VALID,0,VALID,24.8151,VALID,58,VALID,0.394531,
2008-03-05, 00:14:04,VALID,1004,VALID,0,VALID,83.9711,VALID,0,VALID,24.8151,VALID,57,VALID,0.291016,
2008-03-05, 00:15:04,VALID,1003.99,VALID,0,VALID,83.7498,VALID,0,VALID,24.7956,VALID,58,VALID,0.452344,
2008-03-05, 00:16:04,VALID,1003.99,VALID,0,VALID,83.8567,VALID,0,VALID,24.7567,VALID,28,VALID,0.658203,
2008-03-05, 00:17:04,VALID,1003.95,VALID,0,VALID,83.9482,VALID,0,VALID,24.7567,VALID,31,VALID,0.667578,
2008-03-05, 00:18:04,VALID,1003.95,VALID,0,VALID,84.0321,VALID,0,VALID,24.7372,VALID,26,VALID,0.341016,
2008-03-05, 00:19:04,VALID,1003.95,VALID,0,VALID,84.5814,VALID,0,VALID,24.6788,VALID,21,VALID,0.328125,
2008-03-05, 00:20:04,VALID,1003.96,VALID,0,VALID,84.7263,VALID,0,VALID,24.6009,VALID,33,VALID,0.341016,
2008-03-05, 00:21:04,VALID,1003.92,VALID,0,VALID,84.5738,VALID,0,VALID,24.5814,VALID,28,VALID,0.614062,
2008-03-05, 00:22:04,VALID,1003.92,VALID,0,VALID,84.7492,VALID,0,VALID,24.6009,VALID,28,VALID,0.211719,
2008-03-05, 00:23:04,VALID,1003.92,VALID,0,VALID,84.795,VALID,0,VALID,24.5814,VALID,20,VALID,0.408984,
2008-03-05, 00:24:04,VALID,1003.91,VALID,0,VALID,85.3672,VALID,0,VALID,24.5833,VALID,20,VALID,0.332422,
2008-03-05, 00:25:04,VALID,1003.91,VALID,0,VALID,85.7639,VALID,0,VALID,24.4841,VALID,20,VALID,0.252734,
2008-03-05, 00:26:04,VALID,1003.91,VALID,0,VALID,86.0919,VALID,0,VALID,24.4451,VALID,20,VALID,0.273438,
2008-03-05, 00:27:04,VALID,1003.91,VALID,0,VALID,86.5802,VALID,0,VALID,24.3283,VALID,20,VALID,0.444531,
2008-03-05, 00:28:04,VALID,1003.9,VALID,0,VALID,87.3583,VALID,0,VALID,24.2504,VALID,21,VALID,0.342578,
2008-03-05, 00:29:04,VALID,1003.91,VALID,0,VALID,87.5948,VALID,0,VALID,24.1531,VALID,21,VALID,0.38125,
2008-03-05, 00:30:04,VALID,1003.92,VALID,0,VALID,87.7398,VALID,0,VALID,24.0947,VALID,21,VALID,0.376563,
2008-03-05, 00:31:04,VALID,1003.91,VALID,0,VALID,87.8923,VALID,0,VALID,24.0557,VALID,21,VALID,0.391406,
2008-03-05, 00:32:04,VALID,1003.93,VALID,0,VALID,88.2204,VALID,0,VALID,24.077,VALID,21,VALID,0.240625,
2008-03-05, 00:33:04,VALID,1003.92,VALID,0,VALID,88.3882,VALID,0,VALID,24.0168,VALID,20,VALID,0.426172,
2008-03-05, 00:34:04,VALID,1003.9,VALID,0,VALID,87.7016,VALID,0,VALID,24.0168,VALID,26,VALID,1.00664,
2008-03-05, 00:35:04,VALID,1003.93,VALID,0,VALID,87.3659,VALID,0,VALID,24.1336,VALID,22,VALID,1.03945,
2008-03-05, 00:36:04,VALID,1003.94,VALID,0,VALID,86.6259,VALID,0,VALID,24.3283,VALID,26,VALID,0.871094,
2008-03-05, 00:37:04,VALID,1003.92,VALID,0,VALID,86.1224,VALID,0,VALID,24.4451,VALID,18,VALID,0.592578,
2008-03-05, 00:38:04,VALID,1003.92,VALID,0,VALID,85.596,VALID,0,VALID,24.523,VALID,20,VALID,0.590625,
2008-03-05, 00:39:04,VALID,1003.92,VALID,0,VALID,85.2527,VALID,0,VALID,24.6009,VALID,12,VALID,0.58125,
2008-03-05, 00:40:04,VALID,1003.9,VALID,0,VALID,85.474,VALID,0,VALID,24.6204,VALID,11,VALID,0.917578,
2008-03-05, 00:41:04,VALID,1003.91,VALID,0,VALID,84.3907,VALID,0,VALID,24.7372,VALID,4,VALID,0.639844,
2008-03-05, 00:42:04,VALID,1003.86,VALID,0,VALID,85.2909,VALID,0,VALID,24.7159,VALID,11,VALID,0.63125,
2008-03-05, 00:43:04,VALID,1003.85,VALID,0,VALID,84.6348,VALID,0.100563,VALID,24.6398,VALID,14,VALID,1.11367,
2008-03-05, 00:44:04,VALID,1003.78,VALID,0,VALID,85.1307,VALID,0.100563,VALID,24.6398,VALID,10,VALID,1.03477,
2008-03-05, 00:45:04,VALID,1003.79,VALID,0,VALID,85.3672,VALID,0,VALID,24.6398,VALID,10,VALID,0.301953,
2008-03-05, 00:46:04,VALID,1003.75,VALID,0,VALID,86.0233,VALID,0,VALID,24.6204,VALID,355,VALID,0.539453,
2008-03-05, 00:47:04,VALID,1003.74,VALID,0,VALID,85.4435,VALID,0,VALID,24.5425,VALID,4,VALID,0.697266,
2008-03-05, 00:48:04,VALID,1003.69,VALID,0,VALID,86.2903,VALID,0,VALID,24.5035,VALID,1,VALID,0.535156,
2008-03-05, 00:49:04,VALID,1003.68,VALID,0,VALID,86.7861,VALID,0,VALID,24.4841,VALID,5,VALID,0.505469,
2008-03-05, 00:50:04,VALID,1003.68,VALID,0,VALID,86.4123,VALID,0,VALID,24.4062,VALID,3,VALID,0.688281,
2008-03-05, 00:51:04,VALID,1003.67,VALID,0,VALID,86.1987,VALID,0,VALID,24.4257,VALID,19,VALID,0.753906,
2008-03-05, 00:52:04,VALID,1003.68,VALID,0,VALID,86.1529,VALID,0,VALID,24.4841,VALID,355,VALID,0.567578,
2008-03-05, 00:53:04,VALID,1003.64,VALID,0,VALID,86.2521,VALID,0,VALID,24.4451,VALID,19,VALID,0.703125,
2008-03-05, 00:54:04,VALID,1003.62,VALID,0,VALID,84.8713,VALID,0,VALID,24.5425,VALID,8,VALID,0.683203,
2008-03-05, 00:55:04,VALID,1003.62,VALID,0,VALID,85.1993,VALID,0.100563,VALID,24.6204,VALID,358,VALID,0.677344,
2008-03-05, 00:56:04,VALID,1003.61,VALID,0,VALID,84.3525,VALID,0.100563,VALID,24.6788,VALID,6,VALID,1.08672,
2008-03-05, 00:57:04,VALID,1003.61,VALID,0,VALID,85.0925,VALID,0,VALID,24.7177,VALID,345,VALID,0.391406,
2008-03-05, 00:58:04,VALID,1003.61,VALID,0,VALID,84.6501,VALID,0,VALID,24.6983,VALID,11,VALID,0.614844,
2008-03-05, 00:59:04,VALID,1003.59,VALID,0,VALID,84.467,VALID,0.100563,VALID,24.6788,VALID,32,VALID,1.03359,
2008-03-05, 01:00:04,VALID,1003.57,VALID,0,VALID,84.2839,VALID,0.100563,VALID,24.6593,VALID,359,VALID,0.880469,
2008-03-05, 01:01:04,VALID,1003.58,VALID,0,VALID,83.8948,VALID,0.100563,VALID,24.7177,VALID,85,VALID,0.464063,
2008-03-05, 01:02:04,VALID,1003.57,VALID,0,VALID,83.5973,VALID,0,VALID,24.8151,VALID,44,VALID,0.98125,
2008-03-05, 01:03:04,VALID,1003.54,VALID,0,VALID,84.0092,VALID,0,VALID,24.8346,VALID,358,VALID,0.789453,
2008-03-05, 01:04:04,VALID,1003.54,VALID,0,VALID,84.0703,VALID,0,VALID,24.854,VALID,3,VALID,0.676172,
2008-03-05, 01:05:04,VALID,1003.52,VALID,0,VALID,84.1847,VALID,0,VALID,24.7761,VALID,353,VALID,0.546094,
2008-03-05, 01:06:04,VALID,1003.5,VALID,0,VALID,84.261,VALID,0,VALID,24.7567,VALID,9,VALID,0.819531,
2008-03-05, 01:07:04,VALID,1003.5,VALID,0,VALID,83.7956,VALID,0,VALID,24.7177,VALID,359,VALID,0.829297,
2008-03-05, 01:08:04,VALID,1003.49,VALID,0,VALID,84.589,VALID,0,VALID,24.7567,VALID,359,VALID,0.225781,
2008-03-05, 01:09:04,VALID,1003.51,VALID,0,VALID,84.3678,VALID,0,VALID,24.7177,VALID,2,VALID,0.332422,
2008-03-05, 01:10:04,VALID,1003.5,VALID,0,VALID,84.5585,VALID,0,VALID,24.6983,VALID,6,VALID,0.254297,
2008-03-05, 01:11:04,VALID,1003.51,VALID,0,VALID,85.1612,VALID,0,VALID,24.6398,VALID,6,VALID,0.396875,
2008-03-05, 01:12:04,VALID,1003.45,VALID,0,VALID,85.4053,VALID,0,VALID,24.562,VALID,32,VALID,0.339453,
2008-03-05, 01:13:04,VALID,1003.46,VALID,0,VALID,84.1389,VALID,0,VALID,24.5601,VALID,37,VALID,1.1832,
2008-03-05, 01:14:04,VALID,1003.46,VALID,0,VALID,83.2769,VALID,0,VALID,24.7177,VALID,25,VALID,1.25703,
2008-03-05, 01:15:04,VALID,1003.44,VALID,0,VALID,84.0397,VALID,0,VALID,24.7761,VALID,58,VALID,0.244141,
2008-03-05, 01:16:04,VALID,1003.39,VALID,0,VALID,83.6736,VALID,0,VALID,24.7177,VALID,62,VALID,0.427344,
2008-03-05, 01:17:04,VALID,1003.37,VALID,0,VALID,84.7645,VALID,0,VALID,24.6593,VALID,59,VALID,0.292578,
2008-03-05, 01:18:04,VALID,1003.38,VALID,0,VALID,85.0773,VALID,0,VALID,24.5814,VALID,59,VALID,0.341406,
2008-03-05, 01:19:04,VALID,1003.39,VALID,0,VALID,85.1459,VALID,0,VALID,24.5035,VALID,59,VALID,0.181641,
2008-03-05, 01:20:04,VALID,1003.35,VALID,0,VALID,85.2833,VALID,0,VALID,24.4646,VALID,44,VALID,0.664063,
2008-03-05, 01:21:04,VALID,1003.36,VALID,0,VALID,85.8707,VALID,0,VALID,24.4451,VALID,42,VALID,0.374609,
2008-03-05, 01:22:04,VALID,1003.35,VALID,0,VALID,85.4511,VALID,0,VALID,24.4062,VALID,42,VALID,0.262109,
2008-03-05, 01:23:04,VALID,1003.33,VALID,0,VALID,85.7105,VALID,0,VALID,24.4062,VALID,32,VALID,0.389453,
2008-03-05, 01:24:04,VALID,1003.34,VALID,0,VALID,85.8631,VALID,0,VALID,24.4062,VALID,25,VALID,0.248437,
2008-03-05, 01:25:04,VALID,1003.33,VALID,0,VALID,85.5045,VALID,0,VALID,24.4257,VALID,16,VALID,0.292188,
2008-03-05, 01:26:04,VALID,1003.34,VALID,0,VALID,85.1688,VALID,0,VALID,24.4841,VALID,16,VALID,0.334375,
2008-03-05, 01:27:04,VALID,1003.35,VALID,0,VALID,85.9699,VALID,0,VALID,24.5054,VALID,12,VALID,0.251172,
2008-03-05, 01:28:04,VALID,1003.35,VALID,0,VALID,85.3824,VALID,0,VALID,24.4859,VALID,14,VALID,0.468359,
2008-03-05, 01:29:04,VALID,1003.36,VALID,0,VALID,84.7874,VALID,0,VALID,24.5054,VALID,10,VALID,0.585547,
2008-03-05, 01:30:04,VALID,1003.34,VALID,0,VALID,85.3977,VALID,0,VALID,24.523,VALID,10,VALID,0.571484,
2008-03-05, 01:31:04,VALID,1003.35,VALID,0,VALID,84.8866,VALID,0,VALID,24.5035,VALID,6,VALID,0.81875,
2008-03-05, 01:32:04,VALID,1003.36,VALID,0,VALID,85.741,VALID,0,VALID,24.4841,VALID,22,VALID,0.708594,
2008-03-05, 01:33:04,VALID,1003.36,VALID,0,VALID,85.5198,VALID,0,VALID,24.523,VALID,1,VALID,0.598047,
2008-03-05, 01:34:04,VALID,1003.36,VALID,0,VALID,85.5121,VALID,0,VALID,24.4859,VALID,5,VALID,0.622266,
2008-03-05, 01:35:04,VALID,1003.33,VALID,0,VALID,85.2146,VALID,0.100563,VALID,24.4646,VALID,7,VALID,0.477344,
2008-03-05, 01:36:04,VALID,1003.32,VALID,0,VALID,84.7874,VALID,0.100563,VALID,24.5035,VALID,31,VALID,1.15508,
2008-03-05, 01:37:04,VALID,1003.31,VALID,0,VALID,85.1841,VALID,0,VALID,24.4841,VALID,21,VALID,0.703125,
2008-03-05, 01:38:04,VALID,1003.25,VALID,0,VALID,85.8325,VALID,0,VALID,24.4859,VALID,18,VALID,0.408203,
2008-03-05, 01:39:04,VALID,1003.24,VALID,0,VALID,85.0544,VALID,0,VALID,24.447,VALID,9,VALID,0.648438,
2008-03-05, 01:40:04,VALID,1003.24,VALID,0,VALID,85.3519,VALID,0,VALID,24.4257,VALID,15,VALID,0.463281,
2008-03-05, 01:41:04,VALID,1003.22,VALID,0,VALID,84.3983,VALID,0.100563,VALID,24.4433,VALID,38,VALID,0.799219,
2008-03-05, 01:42:04,VALID,1003.22,VALID,0,VALID,84.322,VALID,0,VALID,24.5425,VALID,55,VALID,0.636719,
2008-03-05, 01:43:04,VALID,1003.2,VALID,0,VALID,84.3068,VALID,0,VALID,24.6222,VALID,39,VALID,0.766016,
2008-03-05, 01:44:04,VALID,1003.21,VALID,0,VALID,84.6195,VALID,0.100563,VALID,24.6417,VALID,40,VALID,0.369531,
2008-03-05, 01:45:04,VALID,1003.17,VALID,0,VALID,84.0169,VALID,0,VALID,24.5833,VALID,12,VALID,0.551953,
2008-03-05, 01:46:04,VALID,1003.2,VALID,0,VALID,84.2686,VALID,0,VALID,24.6222,VALID,25,VALID,0.734766,
2008-03-05, 01:47:04,VALID,1003.21,VALID,0,VALID,84.1542,VALID,0,VALID,24.5814,VALID,24,VALID,0.694922,
2008-03-05, 01:48:04,VALID,1003.17,VALID,0,VALID,85.0391,VALID,0,VALID,24.562,VALID,357,VALID,0.442578,
2008-03-05, 01:49:04,VALID,1003.17,VALID,0,VALID,85.4129,VALID,0,VALID,24.4859,VALID,13,VALID,0.665234,
2008-03-05, 01:50:04,VALID,1003.14,VALID,0,VALID,85.3748,VALID,0,VALID,24.4275,VALID,15,VALID,0.547656,
2008-03-05, 01:51:04,VALID,1003.18,VALID,0,VALID,84.3907,VALID,0,VALID,24.4451,VALID,31,VALID,0.902734,
2008-03-05, 01:52:05,VALID,1003.17,VALID,0,VALID,84.6882,VALID,0,VALID,24.4841,VALID,360,VALID,0.725391,
2008-03-05, 01:53:05,VALID,1003.16,VALID,0,VALID,83.254,VALID,0,VALID,24.6417,VALID,347,VALID,1.04648,
2008-03-05, 01:54:05,VALID,1003.13,VALID,0,VALID,81.8274,VALID,0,VALID,24.8151,VALID,36,VALID,1.38164,
2008-03-05, 01:55:05,VALID,1003.16,VALID,0,VALID,81.9799,VALID,0,VALID,25.0098,VALID,25,VALID,1.00781,
2008-03-05, 01:56:05,VALID,1003.16,VALID,0,VALID,82.5826,VALID,0,VALID,24.9904,VALID,15,VALID,0.582031,
2008-03-05, 01:57:05,VALID,1003.15,VALID,0,VALID,82.3766,VALID,0,VALID,24.9709,VALID,15,VALID,0.675391,
2008-03-05, 01:58:05,VALID,1003.14,VALID,0,VALID,82.0257,VALID,0,VALID,24.893,VALID,26,VALID,0.878125,
2008-03-05, 01:59:05,VALID,1003.15,VALID,0,VALID,81.9799,VALID,0,VALID,25.0312,VALID,18,VALID,0.896484,
2008-03-05, 02:00:05,VALID,1003.14,VALID,0,VALID,81.7892,VALID,0,VALID,24.9319,VALID,30,VALID,1.05391,
2008-03-05, 02:01:05,VALID,1003.13,VALID,0,VALID,82.1096,VALID,0,VALID,24.9533,VALID,28,VALID,0.892969,
2008-03-05, 02:02:05,VALID,1003.11,VALID,0,VALID,82.6208,VALID,0,VALID,24.893,VALID,24,VALID,0.759766,
2008-03-05, 02:03:05,VALID,1003.12,VALID,0,VALID,81.6824,VALID,0,VALID,24.893,VALID,14,VALID,1.11758,
2008-03-05, 02:04:05,VALID,1003.12,VALID,0,VALID,81.568,VALID,0,VALID,24.9922,VALID,20,VALID,0.929688,
2008-03-05, 02:05:05,VALID,1003.12,VALID,0,VALID,81.7816,VALID,0,VALID,24.9904,VALID,18,VALID,0.766016,
2008-03-05, 02:06:05,VALID,1003.15,VALID,0,VALID,81.7511,VALID,0,VALID,24.9125,VALID,359,VALID,0.630469,
2008-03-05, 02:07:05,VALID,1003.13,VALID,0,VALID,82.3995,VALID,0,VALID,24.9143,VALID,19,VALID,0.79375,
2008-03-05, 02:08:05,VALID,1003.11,VALID,0,VALID,82.4072,VALID,0,VALID,24.854,VALID,22,VALID,1.19297,
2008-03-05, 02:09:05,VALID,1003.14,VALID,0,VALID,82.0715,VALID,0,VALID,24.9533,VALID,21,VALID,1.02031,
2008-03-05, 02:10:05,VALID,1003.1,VALID,0,VALID,81.1255,VALID,0,VALID,24.9709,VALID,21,VALID,1.53672,
2008-03-05, 02:11:05,VALID,1003.14,VALID,0,VALID,80.6068,VALID,0,VALID,25.0293,VALID,2,VALID,0.875391,
2008-03-05, 02:12:05,VALID,1003.11,VALID,0,VALID,80.9348,VALID,0,VALID,25.0877,VALID,17,VALID,0.655859,
2008-03-05, 02:13:05,VALID,1003.15,VALID,0,VALID,81.5222,VALID,0,VALID,25.0682,VALID,352,VALID,0.917188,
2008-03-05, 02:14:05,VALID,1003.13,VALID,0,VALID,80.5686,VALID,0,VALID,25.0507,VALID,29,VALID,1.02695,
2008-03-05, 02:15:05,VALID,1003.13,VALID,0,VALID,80.3474,VALID,0,VALID,25.1091,VALID,10,VALID,1.02852,
2008-03-05, 02:16:05,VALID,1003.11,VALID,0,VALID,80.3626,VALID,0,VALID,25.0682,VALID,23,VALID,1.60625,
2008-03-05, 02:17:05,VALID,1003.13,VALID,0,VALID,80.4694,VALID,0,VALID,25.0682,VALID,345,VALID,0.947656,
2008-03-05, 02:18:05,VALID,1003.15,VALID,0,VALID,81.2628,VALID,0,VALID,25.0682,VALID,14,VALID,1.09766,
2008-03-05, 02:19:05,VALID,1003.15,VALID,0,VALID,80.8432,VALID,0,VALID,25.1072,VALID,21,VALID,0.883984,
2008-03-05, 02:20:05,VALID,1003.14,VALID,0,VALID,80.7975,VALID,0,VALID,25.148,VALID,42,VALID,0.966016,
2008-03-05, 02:21:05,VALID,1003.14,VALID,0,VALID,80.2253,VALID,0,VALID,25.1267,VALID,33,VALID,1.53164,
2008-03-05, 02:22:05,VALID,1003.16,VALID,0,VALID,80.5533,VALID,0,VALID,25.2065,VALID,41,VALID,0.490234,
2008-03-05, 02:23:05,VALID,1003.15,VALID,0,VALID,80.683,VALID,0,VALID,25.2065,VALID,16,VALID,0.766797,
2008-03-05, 02:24:05,VALID,1003.15,VALID,0,VALID,80.5991,VALID,0,VALID,25.187,VALID,22,VALID,1.20352,
2008-03-05, 02:25:05,VALID,1003.11,VALID,0,VALID,80.027,VALID,0,VALID,25.2454,VALID,33,VALID,1.71328,
2008-03-05, 02:26:05,VALID,1003.12,VALID,0,VALID,80.0117,VALID,0,VALID,25.2649,VALID,3,VALID,1.27813,
2008-03-05, 02:27:05,VALID,1003.1,VALID,0,VALID,79.1649,VALID,0,VALID,25.3818,VALID,2,VALID,0.871094,
2008-03-05, 02:28:05,VALID,1003.08,VALID,0,VALID,78.9284,VALID,0,VALID,25.3798,VALID,350,VALID,0.966406,
2008-03-05, 02:29:05,VALID,1003.05,VALID,0,VALID,80.0041,VALID,0,VALID,25.3604,VALID,6,VALID,0.778516,
2008-03-05, 02:30:05,VALID,1003.04,VALID,0,VALID,78.5546,VALID,0,VALID,25.3798,VALID,13,VALID,1.45313,
2008-03-05, 02:31:05,VALID,1003.04,VALID,0,VALID,79.2107,VALID,0,VALID,25.4577,VALID,22,VALID,0.635156,
2008-03-05, 02:32:05,VALID,1003.04,VALID,0,VALID,79.0657,VALID,0,VALID,25.4207,VALID,30,VALID,0.369531,
2008-03-05, 02:33:05,VALID,1003.04,VALID,0,VALID,79.1649,VALID,0,VALID,25.3623,VALID,15,VALID,0.589063,
2008-03-05, 02:34:05,VALID,1003.04,VALID,0,VALID,79.5463,VALID,0,VALID,25.3409,VALID,13,VALID,0.444141,
2008-03-05, 02:35:05,VALID,1003.02,VALID,0,VALID,79.4548,VALID,0,VALID,25.3214,VALID,347,VALID,0.585156,
2008-03-05, 02:36:05,VALID,1003.01,VALID,0,VALID,79.2946,VALID,0,VALID,25.3428,VALID,7,VALID,0.813281,
2008-03-05, 02:37:05,VALID,1003.01,VALID,0,VALID,78.6309,VALID,0,VALID,25.3798,VALID,42,VALID,0.443359,
2008-03-05, 02:38:05,VALID,1003.03,VALID,0,VALID,79.4472,VALID,0,VALID,25.3798,VALID,41,VALID,0.659766,
2008-03-05, 02:39:05,VALID,1003.01,VALID,0,VALID,80.3245,VALID,0,VALID,25.3428,VALID,42,VALID,0.271094,
2008-03-05, 02:40:05,VALID,1003.02,VALID,0,VALID,80.6525,VALID,0,VALID,25.2454,VALID,7,VALID,0.336328,
2008-03-05, 02:41:05,VALID,1003.01,VALID,0,VALID,79.8515,VALID,0,VALID,25.148,VALID,12,VALID,0.382422,
2008-03-05, 02:42:05,VALID,1003,VALID,0,VALID,80.9958,VALID,0,VALID,25.1286,VALID,43,VALID,0.642969,
2008-03-05, 02:43:05,VALID,1002.99,VALID,0,VALID,81.423,VALID,0,VALID,25.0312,VALID,24,VALID,0.523828,
2008-03-05, 02:44:05,VALID,1002.98,VALID,0,VALID,81.7282,VALID,0,VALID,25.0098,VALID,13,VALID,0.808203,
2008-03-05, 02:45:05,VALID,1002.96,VALID,0,VALID,81.0874,VALID,0,VALID,24.9922,VALID,13,VALID,0.999609,
2008-03-05, 02:46:05,VALID,1003,VALID,0,VALID,82.0257,VALID,0,VALID,25.0117,VALID,28,VALID,0.283203,
2008-03-05, 02:47:05,VALID,1002.98,VALID,0,VALID,80.6602,VALID,0,VALID,24.9514,VALID,23,VALID,1.14805,
2008-03-05, 02:48:05,VALID,1003.02,VALID,0,VALID,80.3092,VALID,0,VALID,25.1286,VALID,23,VALID,1.18477,
2008-03-05, 02:49:05,VALID,1003.02,VALID,0,VALID,79.5845,VALID,0,VALID,25.2649,VALID,53,VALID,0.822266,
2008-03-05, 02:50:05,VALID,1003.01,VALID,0,VALID,79.8515,VALID,0,VALID,25.3039,VALID,5,VALID,0.692578,
2008-03-05, 02:51:05,VALID,1003.02,VALID,0,VALID,80.5991,VALID,0,VALID,25.2844,VALID,64,VALID,0.304297,
2008-03-05, 02:52:05,VALID,1003.03,VALID,0,VALID,79.9583,VALID,0,VALID,25.2065,VALID,63,VALID,0.392188,
2008-03-05, 02:53:05,VALID,1003.02,VALID,0,VALID,80.5762,VALID,0,VALID,25.1656,VALID,13,VALID,0.629687,
2008-03-05, 02:54:05,VALID,1003.03,VALID,0,VALID,80.7898,VALID,0,VALID,25.148,VALID,28,VALID,1.09492,
2008-03-05, 02:55:05,VALID,1003.02,VALID,0,VALID,80.8127,VALID,0,VALID,25.0896,VALID,30,VALID,0.466406,
2008-03-05, 02:56:05,VALID,1003.03,VALID,0,VALID,81.1408,VALID,0,VALID,25.0507,VALID,24,VALID,0.576953,
2008-03-05, 02:57:05,VALID,1003.02,VALID,0,VALID,81.7892,VALID,0,VALID,25.0098,VALID,35,VALID,0.653516,
2008-03-05, 02:58:05,VALID,1003.06,VALID,0,VALID,82.5369,VALID,0,VALID,24.9338,VALID,31,VALID,0.267188,
2008-03-05, 02:59:05,VALID,1003.02,VALID,0,VALID,82.9946,VALID,0,VALID,24.8364,VALID,73,VALID,0.397266,
2008-03-05, 03:00:05,VALID,1003.01,VALID,0,VALID,83.315,VALID,0,VALID,24.7372,VALID,72,VALID,0.289453,
2008-03-05, 03:01:05,VALID,1003.04,VALID,0,VALID,83.3303,VALID,0,VALID,24.7001,VALID,29,VALID,0.562109,
2008-03-05, 03:02:05,VALID,1003.06,VALID,0,VALID,83.3074,VALID,0,VALID,24.6807,VALID,4,VALID,0.376953,
2008-03-05, 03:03:05,VALID,1003.02,VALID,0,VALID,82.6284,VALID,0,VALID,24.6983,VALID,28,VALID,1.06797,
2008-03-05, 03:04:05,VALID,1003.04,VALID,0,VALID,83.46,VALID,0,VALID,24.7567,VALID,33,VALID,0.162109,
2008-03-05, 03:05:05,VALID,1003.02,VALID,0,VALID,82.4835,VALID,0,VALID,24.7586,VALID,7,VALID,0.8625,
2008-03-05, 03:06:05,VALID,1003.05,VALID,0,VALID,82.5979,VALID,0,VALID,24.7761,VALID,16,VALID,0.721094,
2008-03-05, 03:07:05,VALID,1003.03,VALID,0,VALID,81.4917,VALID,0,VALID,24.8949,VALID,32,VALID,0.742969,
2008-03-05, 03:08:05,VALID,1003.03,VALID,0,VALID,82.3232,VALID,0,VALID,24.9533,VALID,76,VALID,0.202344,
2008-03-05, 03:09:05,VALID,1003.04,VALID,0,VALID,82.4911,VALID,0,VALID,24.9533,VALID,40,VALID,0.409766,
2008-03-05, 03:10:05,VALID,1003.03,VALID,0,VALID,82.3232,VALID,0,VALID,24.8559,VALID,42,VALID,0.280078,
2008-03-05, 03:11:05,VALID,1003.01,VALID,0,VALID,82.7581,VALID,0,VALID,24.8364,VALID,45,VALID,0.360547,
2008-03-05, 03:12:05,VALID,1003.02,VALID,0,VALID,83.6736,VALID,0,VALID,24.7761,VALID,45,VALID,0.127734,
2008-03-05, 03:13:05,VALID,1003.01,VALID,0,VALID,83.5439,VALID,0,VALID,24.7196,VALID,28,VALID,0.557031,
2008-03-05, 03:14:05,VALID,1002.98,VALID,0,VALID,84.0779,VALID,0,VALID,24.6807,VALID,47,VALID,0.449219,
2008-03-05, 03:15:05,VALID,1003.01,VALID,0,VALID,84.795,VALID,0,VALID,24.5833,VALID,63,VALID,0.156641,
2008-03-05, 03:16:05,VALID,1003,VALID,0,VALID,85.1154,VALID,0,VALID,24.5035,VALID,63,VALID,0.297656,
2008-03-05, 03:17:05,VALID,1003.01,VALID,0,VALID,85.0239,VALID,0,VALID,24.447,VALID,63,VALID,0.0785156,
2008-03-05, 03:18:05,VALID,1003,VALID,0,VALID,84.9323,VALID,0,VALID,24.3886,VALID,63,VALID,0.359375,
2008-03-05, 03:19:05,VALID,1003.01,VALID,0,VALID,85.6037,VALID,0,VALID,24.3302,VALID,57,VALID,0.395312,
2008-03-05, 03:20:05,VALID,1003.02,VALID,0,VALID,85.8631,VALID,0,VALID,24.2504,VALID,57,VALID,0.201562,
2008-03-05, 03:21:05,VALID,1002.99,VALID,0,VALID,86.4352,VALID,0,VALID,24.2133,VALID,57,VALID,0.110156,
2008-03-05, 03:22:05,VALID,1003.03,VALID,0,VALID,86.7709,VALID,0,VALID,24.1336,VALID,56,VALID,0.330469,
2008-03-05, 03:23:05,VALID,1003,VALID,0,VALID,87.5567,VALID,0,VALID,24.0557,VALID,39,VALID,0.467969,
2008-03-05, 03:24:05,VALID,1003,VALID,0,VALID,87.8847,VALID,0,VALID,23.9797,VALID,39,VALID,0.367188,
2008-03-05, 03:25:05,VALID,1003.01,VALID,0,VALID,87.427,VALID,0,VALID,23.9213,VALID,39,VALID,0.188672,
2008-03-05, 03:26:05,VALID,1003.01,VALID,0,VALID,88.0678,VALID,0,VALID,23.9408,VALID,45,VALID,0.687109,
2008-03-05, 03:27:05,VALID,1002.99,VALID,0,VALID,88.0296,VALID,0,VALID,23.9018,VALID,49,VALID,0.232812,
2008-03-05, 03:28:05,VALID,1002.98,VALID,0,VALID,88.5103,VALID,0,VALID,23.8824,VALID,49,VALID,0.466797,
2008-03-05, 03:29:05,VALID,1002.99,VALID,0,VALID,88.6705,VALID,0,VALID,23.8027,VALID,49,VALID,0.285547,
2008-03-05, 03:30:05,VALID,1002.96,VALID,0,VALID,89.029,VALID,0,VALID,23.7655,VALID,38,VALID,0.805469,
2008-03-05, 03:31:05,VALID,1002.93,VALID,0,VALID,89.3571,VALID,0,VALID,23.6877,VALID,38,VALID,0.306641,
2008-03-05, 03:32:05,VALID,1002.94,VALID,0,VALID,89.8224,VALID,0,VALID,23.6293,VALID,38,VALID,0.319141,
2008-03-05, 03:33:05,VALID,1002.95,VALID,0,VALID,90.181,VALID,0,VALID,23.5302,VALID,38,VALID,0.179688,
2008-03-05, 03:34:05,VALID,1002.95,VALID,0,VALID,90.509,VALID,0,VALID,23.4718,VALID,38,VALID,0.298828,
2008-03-05, 03:35:05,VALID,1002.93,VALID,0,VALID,90.8218,VALID,0,VALID,23.4134,VALID,63,VALID,0.576172,
2008-03-05, 03:36:05,VALID,1002.97,VALID,0,VALID,90.8829,VALID,0,VALID,23.3939,VALID,61,VALID,0.38125,
2008-03-05, 03:37:05,VALID,1002.98,VALID,0,VALID,90.9057,VALID,0,VALID,23.3744,VALID,66,VALID,0.650391,
2008-03-05, 03:38:05,VALID,1002.98,VALID,0,VALID,90.9973,VALID,0,VALID,23.3957,VALID,54,VALID,0.455078,
2008-03-05, 03:39:05,VALID,1002.99,VALID,0,VALID,91.0125,VALID,0,VALID,23.3744,VALID,51,VALID,0.373047,
2008-03-05, 03:40:05,VALID,1002.99,VALID,0,VALID,90.9897,VALID,0,VALID,23.355,VALID,58,VALID,0.444531,
2008-03-05, 03:41:05,VALID,1002.99,VALID,0,VALID,91.0431,VALID,0,VALID,23.316,VALID,62,VALID,0.535547,
2008-03-05, 03:42:05,VALID,1003.02,VALID,0,VALID,91.0812,VALID,0,VALID,23.3373,VALID,62,VALID,0.296484,
2008-03-05, 03:43:05,VALID,1003.01,VALID,0,VALID,91.0736,VALID,0,VALID,23.2966,VALID,62,VALID,0.341406,
2008-03-05, 03:44:05,VALID,1003,VALID,0,VALID,91.0812,VALID,0,VALID,23.2754,VALID,62,VALID,0.436328,
2008-03-05, 03:45:05,VALID,1003,VALID,0,VALID,91.0965,VALID,0.100563,VALID,23.316,VALID,60,VALID,0.312109,
2008-03-05, 03:46:05,VALID,1003.02,VALID,0,VALID,91.3024,VALID,0,VALID,23.2577,VALID,60,VALID,0.153906,